Weather History for Davenport, IA

Change the Weather History Date:

Saturday, March 15, 2014

  Actual Average Record
Temperature  
Mean Temperature 37 °F 38 °F  
Max Temperature 44 °F 48 °F 80 °F (2012)
Min Temperature 30 °F 28 °F 7 °F (1979)
Degree Days  
Heating Degree Days 28 27  
Month to date heating degree days 570 457  
Since 1 July heating degree days 6433 5482  
Cooling Degree Days 0 0  
Month to date cooling degree days 0 0  
Year to date cooling degree days 0 0  
Moisture  
Dew Point 27 °F    
Average Humidity 71    
Maximum Humidity 92    
Minimum Humidity 49    
Precipitation  
Precipitation 0.03 in 0.09 in 0.63 in (2001)
Month to date precipitation 0.31 1.14  
Year to date precipitation 3.10 3.67  
Snow  
Snow 0.50 in - - ()
Month to date snowfall 5.9  
Since 1 July snowfall 48.7  
Snow Depth 0.00 in    
Sea Level Pressure  
Sea Level Pressure 30.11 in    
Wind  
Wind Speed 10 mph (NE)    
Max Wind Speed 20 mph    
Max Gust Speed 28 mph    
Visibility 9 miles    
Events Snow    
T = Trace of Precipitation, MM = Missing Value Source: NWS Daily Summary

Daily Weather History Graph

Daily Weather History Graph

Search for Another Location

Airport:

Trip Planner

Search our weather history database for the weather conditions in past years. The results will help you decide how hot, cold, wet, or windy it might be!

Date:

Astronomy

Mar. 15, 2014 Rise Set
Actual Time 7:14 AM CDT 7:09 PM CDT
Civil Twilight 6:46 AM CDT 7:36 PM CDT
Nautical Twilight 6:14 AM CDT 8:08 PM CDT
Astronomical Twilight 5:41 AM CDT 8:41 PM CDT
Moon 6:28 PM CDT (3/15) 6:26 AM CDT (3/15)
Length of Visible Light 12h 50m
Length of Day
11h 54m
Waxing Gibbous, 99% of the Moon is Illuminated
Mar 15
Waxing Gibbous
Mar 16
Full
Mar 23
Last Quarter
Mar 30
New
Apr 7
First Quarter

Hourly Weather History & Observations

Time (CDT) Temp. Windchill Dew Point Humidity Pressure Visibility Wind Dir Wind Speed Gust Speed Precip Events Conditions
12:52 AM 34.0 °F 26.6 °F 30.0 °F 85% 29.96 in 10.0 mi WNW 9.2 mph - N/A   Clear
1:52 AM 34.0 °F 26.0 °F 30.0 °F 85% 29.97 in 10.0 mi WNW 10.4 mph - N/A   Clear
2:52 AM 30.9 °F 24.3 °F 28.0 °F 89% 30.00 in 10.0 mi WSW 6.9 mph - N/A   Clear
3:52 AM 30.9 °F 23.5 °F 28.0 °F 89% 30.00 in 10.0 mi West 8.1 mph - N/A   Clear
4:52 AM 32.0 °F 26.4 °F 28.0 °F 85% 30.01 in 10.0 mi West 5.8 mph - N/A   Scattered Clouds
5:52 AM 32.0 °F 26.4 °F 28.0 °F 85% 30.03 in 10.0 mi NW 5.8 mph - N/A   Clear
6:52 AM 30.9 °F 27.5 °F 27.0 °F 85% 30.04 in 10.0 mi North 3.5 mph - N/A   Scattered Clouds
7:52 AM 30.9 °F - 26.1 °F 82% 30.06 in 10.0 mi Calm Calm - N/A   Mostly Cloudy
8:52 AM 33.1 °F 28.7 °F 25.0 °F 72% 30.08 in 10.0 mi NNE 4.6 mph - N/A   Mostly Cloudy
9:52 AM 34.0 °F 27.2 °F 25.0 °F 70% 30.11 in 10.0 mi NE 8.1 mph - N/A   Partly Cloudy
10:52 AM 36.0 °F 31.1 °F 26.1 °F 67% 30.12 in 10.0 mi East 5.8 mph - N/A   Partly Cloudy
11:52 AM 37.9 °F 32.7 °F 25.0 °F 60% 30.13 in 10.0 mi East 6.9 mph - N/A   Clear
12:52 PM 39.9 °F 34.5 °F 26.1 °F 58% 30.13 in 10.0 mi East 8.1 mph - N/A   Mostly Cloudy
1:52 PM 42.1 °F 37.7 °F 25.0 °F 51% 30.12 in 10.0 mi East 6.9 mph - N/A   Mostly Cloudy
2:52 PM 43.0 °F 37.2 °F 26.1 °F 51% 30.10 in 10.0 mi East 10.4 mph - N/A   Clear
3:52 PM 42.1 °F 33.9 °F 26.1 °F 53% 30.10 in 10.0 mi ENE 17.3 mph 20.7 mph N/A   Partly Cloudy
4:52 PM 39.9 °F 30.8 °F 28.9 °F 65% 30.11 in 10.0 mi ENE 18.4 mph - N/A   Scattered Clouds
5:52 PM 39.9 °F 31.4 °F 26.1 °F 58% 30.13 in 10.0 mi NE 16.1 mph 23.0 mph N/A   Clear
6:52 PM 37.0 °F 28.5 °F 25.0 °F 62% 30.17 in 10.0 mi NE 13.8 mph - N/A   Mostly Cloudy
7:52 PM 34.0 °F 25.5 °F 25.0 °F 70% 30.18 in 10.0 mi ENE 11.5 mph - N/A   Clear
8:52 PM 33.1 °F 23.4 °F 26.1 °F 75% 30.20 in 10.0 mi NE 13.8 mph - N/A   Clear
9:52 PM 33.1 °F 23.4 °F 26.1 °F 75% 30.22 in 10.0 mi NE 13.8 mph - N/A   Mostly Cloudy
10:52 PM 32.0 °F 20.8 °F 27.0 °F 82% 30.22 in 10.0 mi NNE 17.3 mph - N/A   Overcast
11:52 PM 32.0 °F 21.2 °F 28.0 °F 85% 30.23 in 3.0 mi NE 16.1 mph - 0.00 in Snow Light Snow
11:56 PM 32.0 °F 21.6 °F 28.4 °F 87% 30.21 in 1.8 mi NE 15.0 mph - 0.00 in Snow Light Snow